Back to catalog

FENGYUN 1C DEB

LostPO
NORAD 38820·DEBRIS·🇨🇳 China

Launched May 10, 1999 from Taiyuan Satellite Launch Center

Loading…

Next Passes (next 24 hours)

TLE

StaleSource: Space-Track

Epoch: Sep 4, 2022, 06:32 UTC

1 38820U 99025EVL 22247.27268701  .00001726  00000-0  12398-2 0  9997
2 38820  98.2330 249.9745 0278772 149.1454 281.8774 13.81066790506345

Track FENGYUN 1C DEB in real time with AllMySat

Download on the App Store